Hillsdale, MI

2:45 PM EST on November 13, 2019 (GMT -0500)
Hillsdale Municipal

Weather History for KJYM - October, 2019

Change the Weather History Date:

Wednesday, October 23, 2019

  Actual Average Record
Temperature  
Mean Temperature 48 °F -  
Max Temperature 58 °F 58 °F 83 °F (1963)
Min Temperature 37 °F 36 °F 18 °F (1969)
Degree Days  
Heating Degree Days 18    
Moisture  
Dew Point 34 °F    
Average Humidity 57    
Maximum Humidity 80    
Minimum Humidity 38    
Precipitation  
Precipitation 0.00 in - - ()
Sea Level Pressure  
Sea Level Pressure 29.92 in    
Wind  
Wind Speed 9 mph ()    
Max Wind Speed 18 mph    
Max Gust Speed 30 mph    
Visibility 10.0 miles    
Events      
Averages and records for this station are not official NWS values.
T = Trace of Precipitation, MM = Missing Value Source: Averaged Metar Reports

Daily Weather History Graph

Daily Weather History Graph

Search for Another Location

Airport or City:

Astronomy

Oct. 23, 2019 Rise Set
Actual Time 7:59 AM EDT 6:44 PM EDT
Civil Twilight 7:31 AM EDT 7:13 PM EDT
Nautical Twilight 6:58 AM EDT 7:45 PM EDT
Astronomical Twilight 6:26 AM EDT 8:18 PM EDT
Moon 2:10 AM EDT (10/23) 4:41 PM EDT (10/23)
Length of Visible Light 11h 42m
Length of Day
10h 45m
Waning Crescent, 27% of the Moon is Illuminated
Oct 23
Waning Crescent
Oct 27
New
Nov 4
First Quarter
Nov 12
Full
Nov 19
Last Quarter

Hourly Weather History & Observations

Time (EDT) Temp. Windchill Dew Point Humidity Pressure Visibility Wind Dir Wind Speed Gust Speed Precip Events Conditions
12:17 AM 46.8 °F - 36.1 °F 67% 29.78 in 10.0 mi WSW 13.8 mph 21.9 mph N/A   Mostly Cloudy
12:35 AM 46.8 °F - 36.0 °F 66% 29.78 in 10.0 mi WSW 6.9 mph 20.7 mph N/A   Overcast
12:55 AM 46.8 °F - 35.8 °F 66% 29.79 in 10.0 mi WSW 11.5 mph 18.4 mph N/A   Overcast
1:15 AM 45.9 °F 41.7 °F 35.6 °F 67% 29.79 in 10.0 mi SW 8.1 mph 16.1 mph N/A   Scattered Clouds
1:19 AM 45.5 °F 41.8 °F 35.8 °F 69% 29.79 in 10.0 mi SW 6.9 mph - N/A   Scattered Clouds
1:56 AM 43.7 °F 39.1 °F 36.7 °F 76% 29.79 in 10.0 mi SW 8.1 mph - N/A   Clear
2:15 AM 43.2 °F 39.0 °F 36.9 °F 78% 29.79 in 10.0 mi SW 6.9 mph - N/A   Clear
2:35 AM 43.0 °F 38.2 °F 37.0 °F 80% 29.79 in 10.0 mi SW 8.1 mph - N/A   Clear
2:36 AM 43.0 °F 38.2 °F 37.0 °F 80% 29.79 in 10.0 mi SSW 8.1 mph - N/A   Clear
2:59 AM 42.8 °F 38.6 °F 36.7 °F 79% 29.81 in 10.0 mi SW 6.9 mph - N/A   Clear
3:17 AM 42.4 °F 37.5 °F 36.3 °F 79% 29.81 in 10.0 mi SW 8.1 mph - N/A   Clear
3:35 AM 42.3 °F 37.3 °F 35.6 °F 77% 29.81 in 10.0 mi SW 8.1 mph - N/A   Clear
3:55 AM 42.8 °F 36.6 °F 34.2 °F 72% 29.80 in 10.0 mi SW 11.5 mph 17.3 mph N/A   Clear
4:19 AM 42.8 °F 36.6 °F 32.9 °F 68% 29.81 in 10.0 mi SW 11.5 mph 18.4 mph N/A   Clear
4:37 AM 42.3 °F 36.8 °F 32.0 °F 67% 29.81 in 10.0 mi WSW 9.2 mph 19.6 mph N/A   Clear
4:55 AM 41.9 °F 35.9 °F 32.0 °F 68% 29.81 in 10.0 mi WSW 10.4 mph 17.3 mph N/A   Clear
4:56 AM 41.9 °F 35.9 °F 32.0 °F 68% 29.81 in 10.0 mi SW 10.4 mph 17.3 mph N/A   Clear
5:15 AM 41.2 °F 35.5 °F 32.0 °F 70% 29.82 in 10.0 mi SW 9.2 mph - N/A   Clear
5:35 AM 41.2 °F 35.5 °F 31.6 °F 69% 29.82 in 10.0 mi WSW 9.2 mph - N/A   Clear
5:58 AM 41.0 °F 34.3 °F 31.5 °F 69% 29.84 in 10.0 mi SW 11.5 mph 18.4 mph N/A   Clear
6:15 AM 40.8 °F 35.6 °F 31.3 °F 69% 29.84 in 10.0 mi SW 8.1 mph - N/A   Clear
6:35 AM 40.1 °F 35.3 °F 31.1 °F 70% 29.85 in 10.0 mi SW 6.9 mph - N/A   Clear
6:55 AM 39.9 °F 33.4 °F 31.1 °F 71% 29.86 in 10.0 mi SW 10.4 mph - N/A   Clear
7:19 AM 39.2 °F 33.6 °F 31.5 °F 74% 29.87 in 10.0 mi SW 8.1 mph - N/A   Clear
7:36 AM 38.3 °F 32.5 °F 31.6 °F 77% 29.89 in 10.0 mi SSW 8.1 mph - N/A   Clear
7:55 AM 37.8 °F 31.8 °F 32.0 °F 80% 29.89 in 10.0 mi SW 8.1 mph - N/A   Clear
7:56 AM 37.8 °F 31.8 °F 32.0 °F 80% 29.89 in 10.0 mi SW 8.1 mph - N/A   Clear
8:15 AM 37.9 °F 32.1 °F 32.0 °F 79% 29.89 in 10.0 mi SW 8.1 mph - N/A   Clear
8:16 AM 37.9 °F 32.1 °F 32.0 °F 79% 29.89 in 10.0 mi SW 8.1 mph - N/A   Clear
8:35 AM 38.7 °F 33.6 °F 31.8 °F 76% 29.91 in 10.0 mi SW 6.9 mph - N/A   Clear
8:58 AM 40.1 °F 34.7 °F 32.0 °F 73% 29.92 in 10.0 mi WSW 8.1 mph - N/A   Clear
9:16 AM 41.9 °F 35.4 °F 31.6 °F 67% 29.93 in 10.0 mi WSW 11.5 mph 17.3 mph N/A   Clear
9:35 AM 43.0 °F 37.2 °F 31.8 °F 65% 29.94 in 10.0 mi SW 10.4 mph - N/A   Clear
9:36 AM 43.0 °F 37.2 °F 31.8 °F 65% 29.94 in 10.0 mi SW 10.4 mph - N/A   Clear
9:55 AM 44.1 °F 38.1 °F 32.0 °F 63% 29.94 in 10.0 mi WSW 11.5 mph - N/A   Clear
9:56 AM 44.1 °F 39.0 °F 32.0 °F 63% 29.94 in 10.0 mi WSW 9.2 mph - N/A   Clear
10:19 AM 45.7 °F 40.2 °F 32.5 °F 60% 29.95 in 10.0 mi WSW 11.5 mph 18.4 mph N/A   Clear
10:37 AM 46.9 °F - 32.4 °F 57% 29.96 in 10.0 mi SW 12.7 mph - N/A   Clear
10:55 AM 47.7 °F - 32.9 °F 57% 29.96 in 10.0 mi SW 17.3 mph 20.7 mph N/A   Clear
10:56 AM 47.7 °F - 32.7 °F 56% 29.97 in 10.0 mi SW 16.1 mph 20.7 mph N/A   Clear
11:15 AM 48.6 °F - 32.9 °F 55% 29.97 in 10.0 mi SW 11.5 mph 20.7 mph N/A   Clear
11:16 AM 48.7 °F - 32.9 °F 54% 29.96 in 10.0 mi SW 10.4 mph 20.7 mph N/A   Clear
11:35 AM 50.0 °F - 32.2 °F 50% 29.97 in 10.0 mi WSW 18.4 mph 21.9 mph N/A   Clear
11:40 AM 50.4 °F - 32.2 °F 50% 29.97 in 10.0 mi WSW 11.5 mph 20.7 mph N/A   Clear
11:57 AM 51.4 °F - 32.2 °F 48% 29.96 in 10.0 mi WSW 12.7 mph 23.0 mph N/A   Clear
12:16 PM 52.3 °F - 32.2 °F 46% 29.97 in 10.0 mi SW 12.7 mph 20.7 mph N/A   Clear
12:35 PM 53.1 °F - 32.0 °F 45% 29.98 in 10.0 mi SW 13.8 mph 21.9 mph N/A   Clear
12:55 PM 54.0 °F - 31.8 °F 43% 29.98 in 10.0 mi WSW 11.5 mph 18.4 mph N/A   Clear
12:56 PM 54.1 °F - 31.8 °F 43% 29.98 in 10.0 mi WSW 10.4 mph 19.6 mph N/A   Clear
1:19 PM 54.5 °F - 30.7 °F 40% 29.97 in 10.0 mi SW 12.7 mph 23.0 mph N/A   Clear
1:37 PM 55.6 °F - 32.5 °F 42% 29.96 in 10.0 mi SW 17.3 mph 25.3 mph N/A   Clear
2:04 PM 57.2 °F - 32.0 °F 38% 29.97 in 10.0 mi WSW 15.0 mph 24.2 mph N/A   Clear
2:08 PM 56.5 °F - 33.1 °F 41% 29.97 in 10.0 mi WSW 11.5 mph 24.2 mph N/A   Clear
2:16 PM 56.8 °F - 33.4 °F 41% 29.96 in 10.0 mi SW 9.2 mph 20.7 mph N/A   Clear
2:35 PM 57.6 °F - 32.7 °F 39% 29.96 in 10.0 mi WSW 17.3 mph 29.9 mph N/A   Scattered Clouds
2:36 PM 57.6 °F - 32.7 °F 39% 29.96 in 10.0 mi WSW 18.4 mph 29.9 mph N/A   Scattered Clouds
2:55 PM 57.2 °F - 32.7 °F 40% 29.96 in 10.0 mi WSW 17.3 mph 25.3 mph N/A   Mostly Cloudy
3:19 PM 56.8 °F - 33.3 °F 41% 29.96 in 10.0 mi WSW 15.0 mph 20.7 mph N/A   Overcast
3:37 PM 58.3 °F - 33.6 °F 39% 29.96 in 10.0 mi WSW 16.1 mph 21.9 mph N/A   Overcast
3:55 PM 57.9 °F - 34.3 °F 41% 29.96 in 10.0 mi SW 13.8 mph 20.7 mph N/A   Overcast
3:56 PM 58.1 °F - 34.3 °F 41% 29.96 in 10.0 mi SW 17.3 mph 20.7 mph N/A   Overcast
4:15 PM 56.3 °F - 33.4 °F 42% 29.96 in 10.0 mi WSW 10.4 mph 21.9 mph N/A   Mostly Cloudy
4:35 PM 56.8 °F - 33.1 °F 41% 29.96 in 10.0 mi SW 11.5 mph 17.3 mph N/A   Scattered Clouds
4:58 PM 57.2 °F - 33.1 °F 40% 29.97 in 10.0 mi SW 12.7 mph 21.9 mph N/A   Clear
5:16 PM 57.4 °F - 32.9 °F 40% 29.97 in 10.0 mi SW 8.1 mph - N/A   Clear
5:35 PM 56.8 °F - 32.4 °F 40% 29.97 in 10.0 mi SW 8.1 mph 16.1 mph N/A   Clear
5:55 PM 55.0 °F - 33.1 °F 43% 29.96 in 10.0 mi SSW 4.6 mph - N/A   Clear
5:56 PM 54.9 °F - 33.1 °F 44% 29.96 in 10.0 mi SSW 4.6 mph - N/A   Clear
6:19 PM 54.0 °F - 34.0 °F 47% 29.96 in 10.0 mi Calm Calm - N/A   Mostly Cloudy
6:37 PM 54.0 °F - 34.0 °F 47% 29.97 in 10.0 mi Calm Calm - N/A   Overcast
6:55 PM 53.4 °F - 34.9 °F 49% 29.98 in 10.0 mi Calm Calm - N/A   Overcast
7:15 PM 52.5 °F - 36.0 °F 53% 29.98 in 10.0 mi South 3.5 mph - N/A   Overcast
7:35 PM 52.0 °F - 36.5 °F 56% 29.99 in 10.0 mi South 4.6 mph - N/A   Overcast
7:39 PM 51.8 °F - 36.3 °F 56% 29.99 in 10.0 mi South 4.6 mph - N/A   Overcast
7:58 PM 51.8 °F - 35.6 °F 54% 29.99 in 10.0 mi South 5.8 mph - N/A   Scattered Clouds
8:16 PM 51.8 °F - 35.6 °F 54% 29.99 in 10.0 mi South 6.9 mph - N/A   Clear
8:35 PM 51.8 °F - 35.2 °F 53% 29.99 in 10.0 mi South 6.9 mph - N/A   Clear
8:55 PM 51.3 °F - 35.1 °F 54% 29.99 in 10.0 mi South 5.8 mph - N/A   Clear
8:56 PM 51.3 °F - 35.1 °F 54% 29.99 in 10.0 mi South 5.8 mph - N/A   Clear
9:19 PM 51.3 °F - 34.7 °F 53% 29.98 in 10.0 mi South 8.1 mph - N/A   Scattered Clouds
9:37 PM 51.8 °F - 34.7 °F 52% 29.98 in 10.0 mi South 9.2 mph - N/A   Clear
9:55 PM 52.2 °F - 34.7 °F 51% 29.99 in 10.0 mi South 10.4 mph - N/A   Clear
10:15 PM 52.3 °F - 34.7 °F 51% 30.00 in 10.0 mi South 9.2 mph - N/A   Clear
10:35 PM 52.3 °F - 34.7 °F 51% 30.00 in 10.0 mi South 9.2 mph - N/A   Scattered Clouds
10:40 PM 52.3 °F - 34.7 °F 51% 30.01 in 10.0 mi South 9.2 mph - N/A   Scattered Clouds
10:58 PM 52.3 °F - 34.9 °F 51% 30.01 in 10.0 mi SSW 11.5 mph 19.6 mph N/A   Mostly Cloudy
11:16 PM 52.7 °F - 34.9 °F 51% 30.01 in 10.0 mi South 12.7 mph 18.4 mph N/A   Overcast
11:35 PM 52.9 °F - 34.9 °F 50% 30.01 in 10.0 mi SSW 12.7 mph 17.3 mph N/A   Overcast
11:55 PM 52.9 °F - 34.9 °F 50% 30.00 in 10.0 mi South 9.2 mph - N/A   Overcast
11:56 PM 52.9 °F - 34.9 °F 50% 30.00 in 10.0 mi SSW 10.4 mph - N/A   Overcast